C/2020 F3 ( NEOWISE )

Japanese version
Home page
Updated on July 27, 2020

---------------------------------------------------------------------

* Profile

Discovery Date March 27, 2020
Magnitude 17 mag
Discoverer Near-Earth Object Wide-field Infrared Survey Explorer

* Pictures

* Orbital Elements

Epoch 2020 July 10.0 TT = JDT 2459040.5
T 2020 July 3.67811 TT                                  Rudenko
q   0.2946635            (2000.0)            P               Q
z  +0.0026925      Peri.   37.27753     +0.71858326     +0.14390660
 +/-0.0000042      Node    61.01217     +0.28194329     -0.95463020
e   0.9992066      Incl.  128.93733     +0.63572484     +0.26071453
From 340 observations 2020 Mar. 27-July 13, mean residual 0".5.

* Finding Charts

* Magnitudes Graph

        m1 = 3.5 + 5 log d + 30   log r  [   ,-66]  (             - 2020 Apr. 28)
        m1 = 7.0 + 5 log d + 12.0 log r  [-66,   ]  (2020 Apr. 28 -             )

---------------------------------------------------------------------

The orbital elements are published on M.P.E.C. 2020-O07.
The charts are made with StellaNavigator Ver.10 (AstroArts).
The magnitudes graphs are made with Comet for Windows.

---------------------------------------------------------------------

Copyright(C) Seiichi Yoshida (comet@aerith.net). All rights reserved.